Location: Aldenham
(51.6667°N, 0.3500°W)
Time: 13:10:52
(UTC+00:00)

A-11 Canister half - Pass Details

Date: 18 February 2026
Orbit: 1513 x 1686 km, 47.2° (Epoch: 17 March)

Event Time Altitude Azimuth Distance (km) Brightness Sun altitude
Rises 05:06:47 0° 284° (WNW) 4,827 - -19.7°
Reaches altitude 10° 05:12:51 10° 255° (WSW) 3,790 - -18.8°
Maximum altitude 05:15:44 12° 238° (WSW) 3,631 - -18.3°
Exits shadow 05:17:54 11° 224° (SW) 3,692 10.6 -18.0°
Drops below altitude 10° 05:18:35 10° 219° (SW) 3,743 10.6 -17.9°
Sets 05:24:31 0° 191° (S) 4,683 11.4 -17.0°
